Simultaneous Nadir Overpasses (SNOs) Predictions

Prediction of SNOs between GOES-16 and TERRA Satellite Orbit:

Table of predicted SNOs for the next 14.0 days since TLE Epoch: 4/27/2019
Index Date Time (GOES-16) GOES-16 Lat,Lon TERRA Lat,Lon Distance(km) Time Diff (sec)
1 04/27/2019 15:42:33 -0.01, -75.21 0.65, -78.26 347.80 80
2 04/29/2019 15:30:22 -0.01, -75.22 0.02, -75.31 10.88 80
3 05/01/2019 15:20:51 -0.01, -75.23 -0.62, -72.36 326.70 80
4 05/02/2019 03:42:15 0.01, -75.21 -0.49, -77.55 265.76 80
5 05/04/2019 03:27:24 0.01, -75.23 0.14, -74.60 72.38 80
6 05/06/2019 03:15:13 0.00, -75.25 0.78, -71.64 410.81 80
7 05/06/2019 15:36:29 -0.00, -75.28 0.30, -76.80 172.43 80
8 05/08/2019 15:26:57 0.00, -75.31 -0.28, -73.84 166.24 80
9 05/09/2019 03:48:21 -0.01, -75.29 -0.83, -79.03 425.89 80




NCC Satellite Simultaneous Nadir Overpasses (SNOs) Prediction Service
